User: anonymous   Login
Location: Mountain View
(37.3861°N, 122.0839°W)
Time: 19:51:06
(UTC-07:00)
Language:

Envisat - Orbit

View from above orbital plane
View from above orbital plane
View from above satellite
View from above satellite

Ground track
Ground track

The orbit is defined by the following mean orbital elements,

1 27386U          26160.62343707 +.00000000 +00000-0 +40431-4 0 00002
2 27386  98.3831 112.1107 0001330  90.2317  87.7528 14.39063093    07
Epoch (UTC): 09 June 2026 14:57:44
Eccentricity: 0.0001330
inclination: 98.3831°
perigee height: 761 km
apogee height: 763 km
right ascension of ascending node: 112.1107°
argument of perigee: 90.2317°
revolutions per day: 14.39063093
mean anomaly at epoch: 87.7528°

The dashed part of the orbit path shows where the satellite is in the earth's shadow,  

DLR